Погода в Ламбасручье

Россия / Республика Карелия     62°17′12″N   34°52′36″E
темп.,
°C
ветер,
м/с
пор.,
м/с
влажн.,
%
обл.,
%
осадки,
мм/ч
давл.,
гПа
погр.,
м
4 декабря, сб
сб400:00−12всв61388100 0.0 1004542
03:00−11всв61484100 0.1 1004676
06:00−11св71579100 0.1 1005746
09:00−12св71474100 0.1 1006747
12:00−12св6137479 0.0 1008761
15:00−13св612775 0.0 1010650
18:00−14св510837 0.0 1013468
21:00−15ссв49888 0.0 1015312
5 декабря, вс
вс500:00−18ссв37948 0.0 1017160
03:00−20ссв259850 0.0 1019106
06:00−21ссв239968 0.0 102088
09:00−22св239868 0.0 102397
12:00−19св259740 0.0 1024141
15:00−20св229861 0.0 102672
18:00−20св229766 0.0 102757
21:00−19ссв229980 0.0 102845
6 декабря, пн
пн600:00−17ссв2210094 0.1 102844
03:00−14св239990 0.1 102868
06:00−15св2410091 0.0 102866
09:00−14в259994 0.1 1028106
12:00−11вюв389699 0.1 1029295
15:00−11вюв3695100 0.1 1028219
18:00−12в379795 0.0 1028200
21:00−12вюв4996100 0.1 1027314
7 декабря, вт
вт700:00−12вюв41095100 0.1 1026362
03:00−13вюв51087100 0.1 1025421
06:00−12вюв5994100 0.2 1023505
09:00−11вюв5994100 0.7 1022491
12:00−10в4895100 0.8 1021446
15:00−10в4895100 1.9 1020457
18:00−10в4995100 1.0 1018493
21:00−9в4895100 1.8 1017475
8 декабря, ср
ср800:00−8всв3895100 0.9 1016517
03:00−8всв3795100 1.9 1015474
06:00−8всв2596100 0.8 1014326
09:00−8св2497100 1.3 1014163
12:00−9св1297100 0.3 101482
15:00−10с1198100 0.4 101530
18:00−11ссз119892 0.1 101634
21:00−12сз229872 0.1 101733